[[{"header":{"parameterUnit":"m.s-1","parameterCategory":1,"la1":30.2991,"la2":30.254,"lo1":-89.0895,"lo2":-89.0444,"dy":0.0017,"dx":0.0017,"nx":28,"ny":28,"refTime":"2025-05-26T21:00:00:Z","depth":0,"parameterNumber":2,"parameterNumberName":"U-component_of_WINDS"},"data":[0,0,0,0,0,0,0,0,0,0,0,0,0,0,0,0,0,0,0,0,0,0,0,0,0,0,0,0,0,0,0,0,0,0,0,0,0,0,0,0,0,0,0,0,0,0,0,0,0,0,0,0,0,0,0,0,0,0,1.5633,1.5632,0,1.558,1.558,1.5579,1.5507,1.5506,1.5505,1.5504,1.5451,1.5451,1.545,0,0,0,0,0,0,0,0,0,0,0,0,0,1.567,1.567,1.5633,1.5632,1.5632,1.5581,1.558,1.5579,1.5507,1.5506,1.5504,1.5503,1.5451,1.5451,1.545,0,0,0,0,0,0,0,0,0,0,0,0,0,1.564,1.567,1.5633,1.559,1.5585,1.5581,1.558,1.5579,1.5508,1.5506,1.5504,1.5502,1.5451,1.5451,1.545,1.5484,0,0,1.5449,1.5449,0,0,0,0,0,0,0,0,1.5642,1.5639,1.5597,1.5593,1.5588,1.5548,1.5574,1.5547,1.5508,1.5537,1.5504,1.5501,1.5485,1.5482,1.5476,1.5482,1.548,1.5449,1.5449,1.5449,1.5449,0,0,0,0,0,0,0,1.5644,1.564,1.5612,1.5596,1.5591,1.5573,1.5566,1.5568,1.5522,1.5535,1.5529,1.5524,1.5482,1.5476,1.5474,1.5479,1.5449,1.5449,1.5448,1.5448,1.5507,1.5509,0,0,0,0,0,0,1.5652,1.5643,1.5614,1.5611,1.5611,1.5573,1.5566,1.5563,1.5522,1.5514,1.5525,1.5521,1.5478,1.5475,1.5472,1.5506,1.5449,1.5448,1.5448,1.5505,1.5507,1.5509,0,0,0,0,0,0,1.5654,1.5651,1.5616,1.5625,1.5619,1.5575,1.5572,1.5563,1.5557,1.5515,1.5506,1.5528,1.5476,1.5473,1.5481,1.5504,1.5448,1.5448,1.5503,1.5506,1.5508,1.5578,0,0,0,0,0,0,1.5655,1.5651,1.5664,1.5626,1.5619,1.5626,1.5573,1.5563,1.5556,1.555,1.5515,1.5508,1.5475,1.5482,1.5481,1.5502,1.5447,1.5501,1.5504,1.5507,1.5573,1.5582,1.559,0,0,0,0,0,1.5657,1.5687,1.5665,1.5662,1.5634,1.5628,1.5624,1.5585,1.5559,1.557,1.5543,1.5509,1.5502,1.5483,1.5481,1.5503,1.5499,1.5503,1.5507,1.5569,1.5581,1.559,0,0,0,0,0,0,1.573,1.5681,1.5657,1.5676,1.5656,1.5616,1.563,1.5599,1.5587,1.5581,1.5534,1.5527,1.554,1.5523,1.5503,1.5532,1.5495,1.5499,1.5543,1.5553,1.5562,1.5565,1.5447,0,0,0,0,0,1.5748,1.5747,1.5705,1.5725,1.5717,1.5675,1.5671,1.5642,1.5621,1.5612,1.5586,1.5566,1.5559,1.5556,1.5547,1.5571,1.5561,1.5584,1.5593,1.56,1.5604,1.5612,1.5621,1.5522,1.5522,1.5522,0,0,1.5786,1.5759,1.5762,1.5739,1.5721,1.572,1.5669,1.5671,1.5669,1.5613,1.5618,1.5598,1.5573,1.5588,1.5594,1.5574,1.5629,1.5605,1.5612,1.5611,1.5617,1.5626,1.5635,1.5525,1.5525,1.5524,0,0,1.5854,1.5835,1.5848,1.5831,1.5803,1.5775,1.5778,1.5742,1.5726,1.5731,1.5687,1.5685,1.5675,1.5657,1.5648,1.5707,1.5674,1.5706,1.575,1.5759,1.5766,1.5773,1.5792,1.5799,1.571,1.571,1.571,0,1.5905,1.5902,1.586,1.5863,1.5854,1.5802,1.5814,1.5799,1.5771,1.5765,1.5744,1.5727,1.5707,1.5716,1.573,1.5725,1.5726,1.5709,1.5769,1.5775,1.578,1.5798,1.5805,1.5714,1.5713,1.5713,1.5712,0,1.5964,1.5962,1.5977,1.5949,1.5941,1.595,1.5908,1.5905,1.5877,1.5851,1.5855,1.5829,1.5812,1.5813,1.5787,1.5818,1.5806,1.5778,1.5739,1.5794,1.581,1.5816,1.5719,1.5718,1.5717,1.5716,0,0,1.6077,1.6024,1.603,1.6015,1.598,1.5978,1.5984,1.5967,1.5964,1.5947,1.5948,1.594,1.5912,1.5901,1.5872,1.588,1.5925,1.585,1.5848,1.5863,1.5955,1.5975,1.5984,1.5904,1.5905,1.5906,1.5956,0,1.6136,1.6142,1.6103,1.6119,1.6115,1.6065,1.6069,1.6048,1.6024,1.6017,1.599,1.5983,1.5949,1.5941,1.5947,1.5919,1.5943,1.5915,1.5904,1.5904,1.5909,1.5992,1.6014,1.6063,1.5962,1.5963,1.5964,0,1.6206,1.619,1.6205,1.6167,1.6164,1.6169,1.6149,1.6144,1.6118,1.61,1.6086,1.6052,1.6053,1.6018,1.6018,1.6,1.5993,1.5978,1.5979,1.5975,1.5936,1.5988,1.6078,1.6084,1.5974,1.5973,1.5972,0,1.6284,1.6266,1.6272,1.6262,1.6218,1.6222,1.6204,1.6177,1.6168,1.6151,1.6145,1.6129,1.612,1.6108,1.607,1.6048,1.6073,1.6035,1.6057,1.6058,1.6063,1.6063,1.6151,1.6063,1.6063,1.6063,1.6062,0,1.6353,1.6363,1.6306,1.6309,1.6319,1.6274,1.6285,1.6262,1.6238,1.6235,1.6192,1.619,1.6141,1.6134,1.6105,1.6108,1.6105,1.6089,1.608,1.6091,1.6093,1.6085,1.608,1.6064,1.6064,1.6064,1.6063,0,1.644,1.6402,1.6405,1.6363,1.6353,1.6361,1.6325,1.6326,1.6298,1.6296,1.6292,1.6249,1.6238,1.6199,1.6179,1.6159,1.6171,1.6157,1.6179,1.6174,1.6196,1.6194,1.628,1.6288,1.6198,1.6199,1.6199,0,1.6486,1.6492,1.645,1.6445,1.6429,1.6422,1.6412,1.6368,1.636,1.633,1.6334,1.632,1.6305,1.629,1.6256,1.624,1.6223,1.6255,1.6221,1.6231,1.6221,1.622,1.6219,1.6262,1.6263,1.6264,1.6265,0,1.6569,1.655,1.6538,1.6519,1.6509,1.6492,1.6473,1.6471,1.6422,1.6415,1.6403,1.6392,1.637,1.6355,1.6333,1.6314,1.6281,1.6276,1.6279,1.629,1.6302,1.6293,1.6197,1.6274,1.6273,1.6272,1.6272,1.6271,1.6635,1.6638,1.6608,1.6595,1.6576,1.6559,1.6556,1.6528,1.6517,1.6495,1.647,1.646,1.6432,1.6399,1.6382,1.6373,1.6355,1.6362,1.6363,1.6364,1.6368,1.6305,1.637,1.6369,1.6369,1.6369,1.6369,0,1.6714,1.6692,1.6681,1.6655,1.6645,1.6614,1.6591,1.6584,1.6576,1.6553,1.6539,1.6523,1.6509,1.6474,1.6455,1.6454,1.6438,1.6451,1.6449,1.6445,1.6387,1.6384,1.6464,1.6464,1.6464,1.6464,1.6464,1.6464,1.6754,1.6756,1.6732,1.6723,1.6701,1.6691,1.6679,1.6663,1.6643,1.6628,1.6615,1.6592,1.6563,1.6542,1.6526,1.6516,1.6511,1.6528,1.6512,1.6458,1.6449,1.6441,1.6438,1.6527,1.6527,1.6571,1.6571,1.6571]},{"header":{"parameterUnit":"m.s-1","parameterCategory":1,"la1":30.2991,"la2":30.254,"lo1":-89.0895,"lo2":-89.0444,"dy":0.0017,"dx":0.0017,"nx":28,"ny":28,"refTime":"2025-05-26T21:00:00:Z","depth":0,"parameterNumber":3,"parameterNumberName":"V-component_of_WINDS"},"data":[0,0,0,0,0,0,0,0,0,0,0,0,0,0,0,0,0,0,0,0,0,0,0,0,0,0,0,0,0,0,0,0,0,0,0,0,0,0,0,0,0,0,0,0,0,0,0,0,0,0,0,0,0,0,0,0,0,0,4.6585,4.6586,0,4.6676,4.6677,4.6678,4.6649,4.6647,4.6645,4.6643,4.673,4.6734,4.6739,0,0,0,0,0,0,0,0,0,0,0,0,0,4.6379,4.6383,4.6585,4.6586,4.6587,4.6676,4.6677,4.6678,4.6649,4.6647,4.6644,4.6642,4.6729,4.6734,4.6739,0,0,0,0,0,0,0,0,0,0,0,0,0,4.6469,4.6384,4.6585,4.6583,4.6584,4.6675,4.6677,4.6678,4.6649,4.6646,4.6644,4.6641,4.6727,4.6733,4.674,4.6836,0,0,4.6759,4.6761,0,0,0,0,0,0,0,0,4.6464,4.6476,4.6582,4.6584,4.6585,4.6648,4.6636,4.6731,4.665,4.6624,4.6643,4.6639,4.6705,4.6713,4.6736,4.684,4.6844,4.6759,4.6763,4.6766,4.6767,0,0,0,0,0,0,0,4.6458,4.6472,4.6621,4.6584,4.6585,4.6576,4.6585,4.6654,4.668,4.6626,4.6625,4.6636,4.6705,4.673,4.6738,4.6845,4.6759,4.6764,4.6768,4.6771,4.7029,4.7032,0,0,0,0,0,0,4.6452,4.6467,4.6618,4.6623,4.6516,4.6582,4.6593,4.6631,4.6679,4.6684,4.6638,4.6634,4.6721,4.6731,4.6741,4.6855,4.6765,4.6771,4.6775,4.7026,4.703,4.7033,0,0,0,0,0,0,4.6447,4.6465,4.6614,4.6545,4.6563,4.6589,4.6631,4.6634,4.6659,4.6688,4.6692,4.666,4.6719,4.6732,4.6812,4.6858,4.6774,4.678,4.7022,4.7027,4.7031,4.7085,0,0,0,0,0,0,4.6442,4.6464,4.6503,4.6546,4.6567,4.6686,4.6634,4.6638,4.667,4.6666,4.6709,4.6713,4.6718,4.6803,4.6818,4.6865,4.6785,4.7018,4.7024,4.703,4.708,4.7091,4.7101,0,0,0,0,0,4.6434,4.6514,4.6505,4.6523,4.6616,4.6689,4.6701,4.6706,4.6674,4.6712,4.673,4.6712,4.685,4.6812,4.6828,4.6877,4.7015,4.7023,4.7029,4.7075,4.7089,4.7101,0,0,0,0,0,0,4.6474,4.6519,4.651,4.6607,4.6644,4.6684,4.6732,4.6721,4.6767,4.6761,4.6763,4.6773,4.6855,4.6874,4.683,4.6971,4.6928,4.6939,4.6956,4.697,4.6981,4.6974,4.679,0,0,0,0,0,4.6494,4.6551,4.6587,4.6668,4.6688,4.6707,4.6739,4.6739,4.6778,4.6793,4.6817,4.6853,4.6904,4.6938,4.6987,4.7082,4.7089,4.7124,4.7134,4.7143,4.7152,4.7201,4.7216,4.7056,4.7056,4.7056,0,0,4.6535,4.6568,4.6603,4.6677,4.6706,4.6763,4.672,4.6783,4.6824,4.6802,4.6879,4.6898,4.6938,4.7025,4.7065,4.7044,4.7198,4.7152,4.7159,4.7163,4.721,4.7225,4.7238,4.7061,4.706,4.706,0,0,4.664,4.6672,4.6742,4.6772,4.6817,4.6829,4.6846,4.6887,4.6899,4.6977,4.696,4.7008,4.7097,4.7126,4.7152,4.7266,4.725,4.7281,4.7338,4.7386,4.7398,4.7409,4.7448,4.7462,4.729,4.729,4.7291,0,4.6686,4.6774,4.6779,4.6843,4.6874,4.6857,4.6927,4.6955,4.7013,4.7034,4.701,4.712,4.7146,4.7239,4.7266,4.7289,4.7306,4.7276,4.7396,4.7407,4.7418,4.7455,4.747,4.7294,4.7293,4.7293,4.7293,0,4.6826,4.6887,4.6938,4.6996,4.7033,4.7099,4.7112,4.7148,4.7145,4.7158,4.7236,4.7266,4.732,4.7342,4.7339,4.7433,4.7419,4.7396,4.7352,4.7437,4.7471,4.7485,4.7299,4.7298,4.7297,4.7296,0,0,4.696,4.7019,4.7037,4.7062,4.711,4.7156,4.7219,4.7274,4.7304,4.7344,4.7396,4.7471,4.7449,4.7479,4.7478,4.752,4.7606,4.7492,4.7492,4.7511,4.7709,4.7726,4.7742,4.7595,4.7598,4.76,4.7705,0,4.7068,4.7183,4.7188,4.7292,4.7346,4.7329,4.7385,4.7418,4.7432,4.7478,4.7492,4.7544,4.7513,4.753,4.7571,4.7587,4.7645,4.7579,4.7642,4.7644,4.7632,4.7761,4.7779,4.7877,4.7719,4.7721,4.7723,0,4.721,4.7255,4.7365,4.7403,4.7425,4.7476,4.7524,4.7569,4.7606,4.7612,4.7645,4.7638,4.77,4.7654,4.7739,4.7694,4.7719,4.773,4.7734,4.774,4.7688,4.7768,4.7908,4.7922,4.7745,4.7743,4.7741,0,4.7294,4.7383,4.7459,4.7481,4.7528,4.7563,4.7583,4.7617,4.7649,4.769,4.771,4.7758,4.7784,4.782,4.7825,4.7791,4.7909,4.7864,4.7914,4.7914,4.794,4.7938,4.8084,4.7957,4.7957,4.7957,4.7957,0,4.7414,4.7481,4.7497,4.7544,4.7618,4.7622,4.7694,4.7711,4.7741,4.7789,4.7777,4.7822,4.7826,4.7871,4.7875,4.7943,4.7955,4.7961,4.7961,4.7962,4.7961,4.7978,4.7971,4.7961,4.796,4.7959,4.7958,0,4.7521,4.7535,4.7617,4.7654,4.7665,4.7717,4.7748,4.7791,4.7803,4.7863,4.7878,4.7895,4.7948,4.7956,4.8018,4.802,4.8101,4.8095,4.809,4.8088,4.8138,4.8133,4.83,4.8321,4.8181,4.8183,4.8184,0,4.7597,4.7648,4.7691,4.7723,4.7745,4.7797,4.7829,4.7834,4.7867,4.7911,4.7949,4.8,4.8042,4.8125,4.8142,4.8188,4.8182,4.8237,4.8189,4.8187,4.8181,4.8178,4.8182,4.8247,4.8248,4.8249,4.825,0,4.7728,4.7732,4.778,4.783,4.7868,4.7907,4.7944,4.797,4.7979,4.8016,4.8071,4.8103,4.8165,4.8215,4.8261,4.8279,4.8266,4.8266,4.8279,4.828,4.8275,4.8277,4.8114,4.8262,4.8261,4.826,4.8259,4.8259,4.7821,4.7865,4.7902,4.7954,4.7982,4.8016,4.8059,4.8075,4.8121,4.8174,4.8173,4.8232,4.8264,4.8324,4.8345,4.8389,4.8371,4.8391,4.8396,4.8401,4.8405,4.8268,4.8397,4.8397,4.8397,4.8397,4.8396,0,4.7951,4.7973,4.8022,4.8074,4.8114,4.8099,4.8138,4.8173,4.8225,4.8257,4.8298,4.8359,4.8407,4.8428,4.8474,4.8505,4.85,4.8517,4.8515,4.8519,4.842,4.8403,4.8521,4.8521,4.8521,4.8521,4.8521,4.8521,4.8023,4.8096,4.8104,4.819,4.8211,4.827,4.8293,4.8323,4.8349,4.8418,4.8458,4.8472,4.8498,4.8546,4.8589,4.8593,4.861,4.863,4.8631,4.8538,4.8526,4.8514,4.8498,4.8634,4.8634,4.8726,4.8727,4.8728]}]]